Time,TemperatureF,DewpointF,PressureIn,WindDirection,WindDirectionDegrees,WindSpeedMPH,WindSpeedGustMPH,Humidity,HourlyPrecipIn,Conditions,Clouds,dailyrainin,SoftwareType,DateUTC
2013-01-01 00:01:00,71.0,68.0,30.06,North,0,9.0,18.0,89,0.00,,,0.37,,2013-01-01 10:01:00,
2013-01-01 00:11:00,71.0,68.0,30.06,North,350,7.0,20.0,89,0.00,,,0.37,,2013-01-01 10:11:00,
2013-01-01 00:22:00,71.0,68.0,30.06,North,350,7.0,20.0,89,0.00,,,0.37,,2013-01-01 10:22:00,
2013-01-01 00:32:00,71.0,67.0,30.06,NNE,15,5.0,16.0,88,0.00,,,0.37,,2013-01-01 10:32:00,
2013-01-01 00:42:00,71.0,67.0,30.06,NNE,15,5.0,16.0,88,0.00,,,0.37,,2013-01-01 10:42:00,
2013-01-01 00:52:00,71.0,68.0,30.05,North,9,7.0,18.0,89,0.00,,,0.37,,2013-01-01 10:52:00,
2013-01-01 01:01:00,71.0,67.0,30.05,North,351,10.0,22.0,88,0.00,,,0.37,,2013-01-01 11:01:00,
2013-01-01 01:11:00,71.0,67.0,30.05,North,351,10.0,22.0,88,0.00,,,0.37,,2013-01-01 11:11:00,
2013-01-01 01:22:00,71.0,67.0,30.05,NNW,332,12.0,21.0,88,0.00,,,0.37,,2013-01-01 11:22:00,
2013-01-01 01:32:00,71.0,67.0,30.04,North,355,6.0,17.0,88,0.00,,,0.37,,2013-01-01 11:32:00,
2013-01-01 01:42:00,71.0,67.0,30.04,North,355,6.0,17.0,88,0.00,,,0.37,,2013-01-01 11:42:00,
2013-01-01 01:53:00,71.0,67.0,30.04,North,5,11.0,23.0,88,0.00,,,0.37,,2013-01-01 11:53:00,
2013-01-01 02:02:00,71.0,67.0,30.04,NNW,342,8.0,19.0,88,0.00,,,0.37,,2013-01-01 12:02:00,
2013-01-01 02:12:00,71.0,67.0,30.04,NNW,342,8.0,19.0,88,0.00,,,0.37,,2013-01-01 12:12:00,
2013-01-01 02:22:00,71.0,67.0,30.04,NE,36,8.0,17.0,88,0.00,,,0.37,,2013-01-01 12:22:00,
2013-01-01 02:32:00,71.0,67.0,30.03,NNW,336,7.0,13.0,87,0.00,,,0.37,,2013-01-01 12:32:00,
2013-01-01 02:42:00,71.0,67.0,30.03,NNW,336,7.0,13.0,87,0.00,,,0.37,,2013-01-01 12:42:00,
2013-01-01 02:52:00,71.0,67.0,30.03,North,355,6.0,17.0,87,0.00,,,0.37,,2013-01-01 12:52:00,
2013-01-01 03:02:00,71.0,67.0,30.03,NNW,338,8.0,20.0,87,0.00,,,0.37,,2013-01-01 13:02:00,
2013-01-01 03:12:00,71.0,67.0,30.03,NNW,338,8.0,20.0,87,0.00,,,0.37,,2013-01-01 13:12:00,
2013-01-01 03:22:00,71.0,67.0,30.03,NNW,339,8.0,24.0,88,0.00,,,0.37,,2013-01-01 13:22:00,
2013-01-01 03:32:00,71.0,67.0,30.03,NNW,327,11.0,21.0,87,0.00,,,0.37,,2013-01-01 13:32:00,
2013-01-01 03:42:00,71.0,67.0,30.03,NNW,327,11.0,21.0,87,0.00,,,0.37,,2013-01-01 13:42:00,
2013-01-01 03:52:00,71.0,67.0,30.03,North,5,7.0,20.0,87,0.00,,,0.37,,2013-01-01 13:52:00,
2013-01-01 04:01:00,71.0,67.0,30.03,North,5,20.0,23.0,88,0.00,,,0.37,,2013-01-01 14:01:00,
2013-01-01 04:11:00,71.0,67.0,30.03,North,5,20.0,23.0,88,0.00,,,0.37,,2013-01-01 14:11:00,
2013-01-01 04:22:00,71.0,67.0,30.03,ENE,57,14.0,24.0,88,0.00,,,0.37,,2013-01-01 14:22:00,
2013-01-01 04:32:00,71.0,67.0,30.03,NNW,346,8.0,23.0,88,0.00,,,0.37,,2013-01-01 14:32:00,
2013-01-01 04:42:00,71.0,67.0,30.03,NNW,346,8.0,23.0,88,0.00,,,0.37,,2013-01-01 14:42:00,
2013-01-01 04:53:00,71.0,68.0,30.03,NNE,17,9.0,27.0,89,0.00,,,0.37,,2013-01-01 14:53:00,
2013-01-01 05:02:00,71.0,68.0,30.04,North,351,21.0,23.0,89,0.00,,,0.37,,2013-01-01 15:02:00,
2013-01-01 05:12:00,71.0,68.0,30.04,NE,38,10.0,27.0,89,0.00,,,0.37,,2013-01-01 15:12:00,
2013-01-01 05:22:00,71.0,68.0,30.04,NE,38,10.0,27.0,89,0.00,,,0.37,,2013-01-01 15:22:00,
2013-01-01 05:32:00,71.0,68.0,30.05,NNE,33,11.0,23.0,89,0.00,,,0.37,,2013-01-01 15:32:00,
2013-01-01 05:42:00,71.0,68.0,30.05,NNE,33,11.0,23.0,89,0.00,,,0.37,,2013-01-01 15:42:00,
2013-01-01 05:53:00,71.0,68.0,30.05,North,355,7.0,22.0,89,0.00,,,0.37,,2013-01-01 15:53:00,
2013-01-01 06:02:00,71.0,68.0,30.04,NNE,25,14.0,18.0,89,0.00,,,0.37,,2013-01-01 16:02:00,
2013-01-01 06:11:00,71.0,68.0,30.04,NNE,25,14.0,18.0,89,0.00,,,0.37,,2013-01-01 16:11:00,
2013-01-01 06:22:00,71.0,68.0,30.05,North,355,8.0,20.0,89,0.00,,,0.37,,2013-01-01 16:22:00,
2013-01-01 06:32:00,71.0,68.0,30.05,NNW,347,6.0,16.0,89,0.00,,,0.37,,2013-01-01 16:32:00,
2013-01-01 06:42:00,71.0,68.0,30.05,NNW,347,6.0,16.0,89,0.00,,,0.37,,2013-01-01 16:42:00,
2013-01-01 06:52:00,71.0,68.0,30.06,NE,37,12.0,18.0,89,0.00,,,0.37,,2013-01-01 16:52:00,
2013-01-01 07:01:00,71.0,68.0,30.06,NNE,22,7.0,21.0,89,0.00,,,0.37,,2013-01-01 17:01:00,
2013-01-01 07:11:00,71.0,68.0,30.06,NNE,22,7.0,21.0,89,0.00,,,0.37,,2013-01-01 17:11:00,
2013-01-01 07:22:00,71.0,68.0,30.06,NNE,26,8.0,22.0,89,0.00,,,0.37,,2013-01-01 17:22:00,
2013-01-01 07:32:00,71.0,68.0,30.06,NE,42,9.0,18.0,90,0.00,,,0.37,,2013-01-01 17:32:00,
2013-01-01 07:42:00,71.0,68.0,30.06,NE,42,9.0,18.0,90,0.00,,,0.37,,2013-01-01 17:42:00,
2013-01-01 07:53:00,71.0,68.0,30.06,ENE,70,17.0,22.0,90,0.00,,,0.37,,2013-01-01 17:53:00,
2013-01-01 08:02:00,71.0,68.0,30.07,NNE,28,8.0,21.0,90,0.00,,,0.37,,2013-01-01 18:02:00,
2013-01-01 08:12:00,71.0,68.0,30.07,NNE,28,8.0,21.0,90,0.00,,,0.37,,2013-01-01 18:12:00,
2013-01-01 08:22:00,71.0,68.0,30.08,NNE,30,14.0,22.0,90,0.00,,,0.37,,2013-01-01 18:22:00,
2013-01-01 08:32:00,71.0,68.0,30.08,ENE,66,10.0,21.0,90,0.00,,,0.37,,2013-01-01 18:32:00,
2013-01-01 08:42:00,71.0,68.0,30.08,ENE,66,10.0,21.0,90,0.00,,,0.37,,2013-01-01 18:42:00,
2013-01-01 08:52:00,71.0,68.0,30.08,ENE,66,10.0,21.0,90,0.00,,,0.37,,2013-01-01 18:52:00,
2013-01-01 09:01:00,72.0,69.0,30.10,NNE,27,9.0,22.0,89,0.00,,,0.37,,2013-01-01 19:01:00,
2013-01-01 09:11:00,72.0,69.0,30.10,NNE,27,9.0,22.0,89,0.00,,,0.37,,2013-01-01 19:11:00,
2013-01-01 09:22:00,72.0,68.0,30.09,NNE,26,14.0,19.0,88,0.00,,,0.37,,2013-01-01 19:22:00,
2013-01-01 09:32:00,72.0,69.0,30.11,ENE,62,14.0,23.0,89,0.00,,,0.37,,2013-01-01 19:32:00,
2013-01-01 09:42:00,72.0,69.0,30.11,ENE,62,14.0,23.0,89,0.00,,,0.37,,2013-01-01 19:42:00,
2013-01-01 09:52:00,71.0,68.0,30.11,NNE,32,13.0,24.0,90,0.00,,,0.37,,2013-01-01 19:52:00,
2013-01-01 10:01:00,71.0,68.0,30.10,NNE,26,21.0,28.0,91,0.00,,,0.37,,2013-01-01 20:01:00,
2013-01-01 10:11:00,71.0,68.0,30.10,NNE,26,21.0,28.0,91,0.00,,,0.37,,2013-01-01 20:11:00,
2013-01-01 10:22:00,71.0,68.0,30.11,NE,42,8.0,20.0,91,0.00,,,0.37,,2013-01-01 20:22:00,
2013-01-01 10:32:00,71.0,68.0,30.10,NE,44,7.0,24.0,91,0.00,,,0.37,,2013-01-01 20:32:00,
2013-01-01 10:42:00,71.0,68.0,30.10,NE,44,7.0,24.0,91,0.00,,,0.37,,2013-01-01 20:42:00,
2013-01-01 10:52:00,71.0,68.0,30.10,ENE,72,17.0,25.0,90,0.00,,,0.37,,2013-01-01 20:52:00,
2013-01-01 11:02:00,71.0,68.0,30.09,NE,56,16.0,27.0,90,0.00,,,0.37,,2013-01-01 21:02:00,
2013-01-01 11:12:00,71.0,68.0,30.09,NNE,28,17.0,27.0,90,0.02,,,0.40,,2013-01-01 21:12:00,
2013-01-01 11:22:00,71.0,68.0,30.09,NNE,28,17.0,27.0,90,0.02,,,0.40,,2013-01-01 21:22:00,
2013-01-01 11:32:00,71.0,69.0,30.08,ENE,77,10.0,20.0,92,0.04,,,0.43,,2013-01-01 21:32:00,
2013-01-01 11:42:00,71.0,69.0,30.08,ENE,77,10.0,20.0,92,0.04,,,0.43,,2013-01-01 21:42:00,
2013-01-01 11:52:00,72.0,70.0,30.08,East,97,9.0,29.0,92,0.04,,,0.43,,2013-01-01 21:52:00,
2013-01-01 12:02:00,71.0,68.0,30.07,North,9,21.0,24.0,91,0.04,,,0.43,,2013-01-01 22:02:00,
2013-01-01 12:11:00,71.0,68.0,30.07,North,9,21.0,24.0,91,0.04,,,0.43,,2013-01-01 22:11:00,
2013-01-01 12:22:00,71.0,68.0,30.06,NE,36,7.0,25.0,90,0.01,,,0.43,,2013-01-01 22:22:00,
2013-01-01 12:32:00,71.0,68.0,30.06,NE,34,15.0,19.0,90,0.00,,,0.43,,2013-01-01 22:32:00,
2013-01-01 12:42:00,71.0,68.0,30.06,NE,34,15.0,19.0,90,0.00,,,0.43,,2013-01-01 22:42:00,
2013-01-01 12:52:00,72.0,69.0,30.05,North,11,16.0,29.0,89,0.00,,,0.43,,2013-01-01 22:52:00,
2013-01-01 13:02:00,72.0,68.0,30.03,East,85,11.0,25.0,87,0.00,,,0.43,,2013-01-01 23:02:00,
2013-01-01 13:12:00,72.0,68.0,30.03,East,85,11.0,25.0,87,0.00,,,0.43,,2013-01-01 23:12:00,
2013-01-01 13:22:00,72.0,68.0,30.03,NE,34,9.0,21.0,86,0.00,,,0.43,,2013-01-01 23:22:00,
2013-01-01 13:32:00,72.0,68.0,30.02,NE,55,15.0,21.0,86,0.00,,,0.43,,2013-01-01 23:32:00,
2013-01-01 13:42:00,72.0,68.0,30.02,NE,55,15.0,21.0,86,0.00,,,0.43,,2013-01-01 23:42:00,
2013-01-01 13:52:00,72.0,67.0,30.02,NE,34,15.0,18.0,85,0.00,,,0.43,,2013-01-01 23:52:00,
2013-01-01 14:02:00,73.0,68.0,30.01,ESE,110,13.0,27.0,84,0.00,,,0.43,,2013-01-02 00:02:00,
2013-01-01 14:12:00,73.0,68.0,30.01,ESE,110,13.0,27.0,84,0.00,,,0.43,,2013-01-02 00:12:00,
2013-01-01 14:22:00,72.0,67.0,30.01,NNE,26,4.0,23.0,84,0.00,,,0.43,,2013-01-02 00:22:00,
2013-01-01 14:32:00,73.0,68.0,30.01,NE,44,5.0,21.0,83,0.00,,,0.43,,2013-01-02 00:32:00,
2013-01-01 14:42:00,73.0,68.0,30.01,NE,44,5.0,21.0,83,0.00,,,0.43,,2013-01-02 00:42:00,
2013-01-01 14:52:00,71.0,66.0,30.01,NNE,31,10.0,26.0,85,0.00,,,0.43,,2013-01-02 00:52:00,
2013-01-01 15:02:00,70.0,66.0,30.01,East,95,11.0,23.0,88,0.01,,,0.44,,2013-01-02 01:02:00,
2013-01-01 15:11:00,70.0,66.0,30.01,East,95,11.0,23.0,88,0.01,,,0.44,,2013-01-02 01:11:00,
2013-01-01 15:22:00,69.0,66.0,30.01,NE,35,8.0,24.0,90,0.01,,,0.44,,2013-01-02 01:22:00,
2013-01-01 15:32:00,69.0,67.0,30.01,ENE,69,15.0,23.0,92,0.02,,,0.45,,2013-01-02 01:32:00,
2013-01-01 15:42:00,69.0,67.0,30.01,ENE,69,15.0,23.0,92,0.02,,,0.45,,2013-01-02 01:42:00,
2013-01-01 15:52:00,69.0,67.0,30.01,ENE,71,12.0,22.0,92,0.04,,,0.47,,2013-01-02 01:52:00,
2013-01-01 16:02:00,68.0,65.0,30.01,North,350,11.0,30.0,91,0.02,,,0.47,,2013-01-02 02:02:00,
2013-01-01 16:11:00,68.0,65.0,30.01,North,350,11.0,30.0,91,0.02,,,0.47,,2013-01-02 02:11:00,
2013-01-01 16:22:00,69.0,66.0,30.01,NE,43,8.0,23.0,91,0.03,,,0.48,,2013-01-02 02:22:00,
2013-01-01 16:32:00,69.0,66.0,30.02,NE,38,7.0,26.0,90,0.02,,,0.48,,2013-01-02 02:32:00,
2013-01-01 16:42:00,69.0,66.0,30.02,NE,38,7.0,26.0,90,0.02,,,0.48,,2013-01-02 02:42:00,
2013-01-01 16:52:00,69.0,66.0,30.02,ENE,76,8.0,27.0,90,0.00,,,0.47,,2013-01-02 02:52:00,
2013-01-01 17:01:00,69.0,66.0,30.03,NE,41,11.0,25.0,90,0.01,,,0.48,,2013-01-02 03:01:00,
2013-01-01 17:11:00,69.0,66.0,30.03,NE,41,11.0,25.0,90,0.01,,,0.48,,2013-01-02 03:11:00,
2013-01-01 17:22:00,69.0,66.0,30.03,NE,51,11.0,24.0,90,0.03,,,0.31,,2013-01-02 03:22:00,
2013-01-01 17:32:00,68.0,65.0,30.03,NE,44,17.0,23.0,90,0.03,,,0.20,,2013-01-02 03:32:00,
2013-01-01 17:42:00,68.0,65.0,30.03,NE,44,17.0,23.0,90,0.03,,,0.20,,2013-01-02 03:42:00,
2013-01-01 17:52:00,69.0,66.0,30.03,NE,48,10.0,23.0,90,0.04,,,0.17,,2013-01-02 03:52:00,
2013-01-01 18:02:00,69.0,66.0,30.04,East,80,13.0,25.0,90,0.03,,,0.17,,2013-01-02 04:02:00,
2013-01-01 18:11:00,69.0,66.0,30.04,East,80,13.0,25.0,90,0.03,,,0.17,,2013-01-02 04:11:00,
2013-01-01 18:22:00,69.0,66.0,30.05,NE,49,12.0,19.0,90,0.00,,,0.17,,2013-01-02 04:22:00,
2013-01-01 18:32:00,69.0,66.0,30.05,ENE,59,10.0,27.0,90,0.00,,,0.17,,2013-01-02 04:32:00,
2013-01-01 18:42:00,69.0,66.0,30.05,ENE,59,10.0,27.0,90,0.00,,,0.17,,2013-01-02 04:42:00,
2013-01-01 18:52:00,69.0,66.0,30.05,NNE,13,4.0,24.0,89,0.00,,,0.18,,2013-01-02 04:52:00,
2013-01-01 19:02:00,69.0,66.0,30.05,NE,48,10.0,25.0,90,0.01,,,0.19,,2013-01-02 05:02:00,
2013-01-01 19:12:00,69.0,66.0,30.05,NE,48,10.0,25.0,90,0.01,,,0.19,,2013-01-02 05:12:00,
2013-01-01 19:22:00,68.0,65.0,30.06,NNE,13,14.0,24.0,90,0.01,,,0.19,,2013-01-02 05:22:00,
2013-01-01 19:32:00,68.0,65.0,30.06,NE,52,22.0,22.0,90,0.03,,,0.21,,2013-01-02 05:32:00,
2013-01-01 19:42:00,68.0,65.0,30.06,NE,52,22.0,22.0,90,0.03,,,0.21,,2013-01-02 05:42:00,
2013-01-01 19:52:00,68.0,65.0,30.07,NE,42,16.0,21.0,91,0.04,,,0.23,,2013-01-02 05:52:00,
2013-01-01 20:02:00,68.0,65.0,30.07,NE,55,9.0,24.0,91,0.09,,,0.28,,2013-01-02 06:02:00,
2013-01-01 20:11:00,68.0,65.0,30.07,NE,55,9.0,24.0,91,0.09,,,0.28,,2013-01-02 06:11:00,
2013-01-01 20:22:00,68.0,65.0,30.07,ENE,63,15.0,25.0,91,0.09,,,0.28,,2013-01-02 06:22:00,
2013-01-01 20:32:00,68.0,66.0,30.07,ENE,69,7.0,26.0,92,0.06,,,0.28,,2013-01-02 06:32:00,
2013-01-01 20:42:00,68.0,66.0,30.07,ENE,69,7.0,26.0,92,0.06,,,0.28,,2013-01-02 06:42:00,
2013-01-01 20:52:00,68.0,66.0,30.08,ENE,63,23.0,24.0,92,0.05,,,0.29,,2013-01-02 06:52:00,
2013-01-01 21:01:00,68.0,66.0,30.08,ENE,61,10.0,23.0,92,0.00,,,0.29,,2013-01-02 07:01:00,
2013-01-01 21:12:00,68.0,66.0,30.08,ENE,61,10.0,23.0,92,0.00,,,0.29,,2013-01-02 07:12:00,
2013-01-01 21:22:00,68.0,66.0,30.08,NE,36,22.0,22.0,92,0.00,,,0.29,,2013-01-02 07:22:00,
2013-01-01 21:32:00,68.0,66.0,30.08,NNE,29,11.0,19.0,92,0.00,,,0.29,,2013-01-02 07:32:00,
2013-01-01 21:42:00,68.0,66.0,30.08,NNE,29,11.0,19.0,92,0.00,,,0.29,,2013-01-02 07:42:00,
2013-01-01 21:52:00,68.0,66.0,30.09,NNE,21,6.0,19.0,92,0.00,,,0.29,,2013-01-02 07:52:00,
2013-01-01 22:01:00,68.0,65.0,30.09,NE,54,17.0,20.0,91,0.00,,,0.28,,2013-01-02 08:01:00,
2013-01-01 22:11:00,68.0,65.0,30.09,NE,54,17.0,20.0,91,0.00,,,0.28,,2013-01-02 08:11:00,
2013-01-01 22:22:00,68.0,65.0,30.08,NE,53,18.0,22.0,91,0.00,,,0.28,,2013-01-02 08:22:00,
2013-01-01 22:32:00,68.0,65.0,30.09,ENE,62,8.0,24.0,90,0.00,,,0.28,,2013-01-02 08:32:00,
2013-01-01 22:42:00,68.0,65.0,30.09,ENE,62,8.0,24.0,90,0.00,,,0.28,,2013-01-02 08:42:00,
2013-01-01 22:52:00,68.0,65.0,30.08,NNE,30,11.0,19.0,90,0.00,,,0.28,,2013-01-02 08:52:00,
2013-01-01 23:02:00,69.0,66.0,30.08,NNE,26,10.0,21.0,90,0.00,,,0.28,,2013-01-02 09:02:00,
2013-01-01 23:12:00,69.0,66.0,30.08,NNE,26,10.0,21.0,90,0.00,,,0.28,,2013-01-02 09:12:00,
2013-01-01 23:22:00,69.0,66.0,30.08,ENE,68,10.0,24.0,89,0.00,,,0.28,,2013-01-02 09:22:00,
2013-01-01 23:32:00,69.0,65.0,30.08,NE,51,8.0,22.0,88,0.00,,,0.28,,2013-01-02 09:32:00,
2013-01-01 23:42:00,69.0,65.0,30.08,NE,51,8.0,22.0,88,0.00,,,0.28,,2013-01-02 09:42:00,
2013-01-01 23:52:00,69.0,65.0,30.07,NE,45,12.0,24.0,88,0.00,,,0.28,,2013-01-02 09:52:00,